TimeCDT,TemperatureF,Dew PointF,Humidity,Sea Level PressureIn,VisibilityMPH,Wind Direction,Wind SpeedMPH,Gust SpeedMPH,PrecipitationIn,Events,Conditions,WindDirDegrees,DateUTC
12:15 AM,39.2,36.0,88,29.82,10.0,Calm,Calm,-,N/A,,Clear,0,2013-10-18 05:15:00
12:35 AM,39.4,35.8,87,29.82,10.0,Calm,Calm,-,N/A,,Clear,0,2013-10-18 05:35:00
12:55 AM,39.6,36.3,88,29.82,10.0,Calm,Calm,-,N/A,,Clear,0,2013-10-18 05:55:00
1:15 AM,42.4,36.7,80,29.81,10.0,SSW,5.8,-,N/A,,Scattered Clouds,210,2013-10-18 06:15:00
1:35 AM,45.5,35.4,68,29.81,10.0,SW,6.9,-,N/A,,Mostly Cloudy,220,2013-10-18 06:35:00
1:55 AM,46.6,35.4,65,29.81,10.0,SW,8.1,-,N/A,,Overcast,220,2013-10-18 06:55:00
2:15 AM,46.9,35.4,64,29.80,10.0,SW,9.2,-,N/A,,Overcast,220,2013-10-18 07:15:00
2:35 AM,46.9,35.1,63,29.80,10.0,SW,10.4,-,N/A,,Overcast,220,2013-10-18 07:35:00
2:55 AM,46.6,35.1,64,29.80,10.0,SW,9.2,-,N/A,,Overcast,220,2013-10-18 07:55:00
3:15 AM,45.9,34.9,66,29.80,10.0,SW,6.9,-,N/A,,Overcast,230,2013-10-18 08:15:00
3:35 AM,44.8,35.1,69,29.80,10.0,SW,6.9,-,N/A,,Mostly Cloudy,230,2013-10-18 08:35:00
3:55 AM,43.7,35.2,72,29.80,10.0,WSW,4.6,-,N/A,,Scattered Clouds,240,2013-10-18 08:55:00
4:15 AM,42.3,35.4,77,29.80,10.0,West,5.8,-,N/A,,Scattered Clouds,260,2013-10-18 09:15:00
4:35 AM,43.7,36.5,76,29.80,10.0,West,6.9,-,N/A,,Overcast,260,2013-10-18 09:35:00
4:55 AM,44.1,37.4,77,29.81,10.0,West,9.2,-,N/A,,Overcast,270,2013-10-18 09:55:00
5:15 AM,43.9,37.6,78,29.81,10.0,West,8.1,-,N/A,,Mostly Cloudy,270,2013-10-18 10:15:00
5:35 AM,43.7,37.9,80,29.82,10.0,West,5.8,-,N/A,,Mostly Cloudy,270,2013-10-18 10:35:00
5:55 AM,44.2,38.8,81,29.82,10.0,West,6.9,-,N/A,,Overcast,270,2013-10-18 10:55:00
6:15 AM,43.7,39.6,85,29.83,10.0,West,4.6,-,N/A,,Overcast,280,2013-10-18 11:15:00
6:35 AM,44.8,41.2,87,29.83,10.0,West,4.6,-,N/A,,Overcast,280,2013-10-18 11:35:00
6:55 AM,45.7,41.7,86,29.83,10.0,West,6.9,-,N/A,,Overcast,270,2013-10-18 11:55:00
7:15 AM,46.4,41.5,83,29.84,10.0,West,8.1,-,N/A,,Overcast,270,2013-10-18 12:15:00
7:35 AM,46.4,41.4,83,29.85,10.0,West,8.1,-,N/A,,Overcast,270,2013-10-18 12:35:00
7:55 AM,47.3,41.4,80,29.85,10.0,West,8.1,-,N/A,,Overcast,260,2013-10-18 12:55:00
8:15 AM,47.3,41.5,80,29.85,10.0,West,10.4,-,N/A,,Overcast,260,2013-10-18 13:15:00
8:35 AM,47.3,41.4,80,29.86,10.0,West,10.4,-,N/A,,Overcast,260,2013-10-18 13:35:00
8:55 AM,46.9,41.0,80,29.87,10.0,West,10.4,-,N/A,,Overcast,270,2013-10-18 13:55:00
9:15 AM,47.1,40.3,77,29.88,10.0,West,10.4,-,N/A,,Overcast,270,2013-10-18 14:15:00
9:35 AM,47.7,40.5,76,29.88,10.0,West,13.8,18.4,N/A,,Overcast,270,2013-10-18 14:35:00
9:55 AM,47.5,39.7,75,29.89,10.0,West,11.5,16.1,N/A,,Overcast,270,2013-10-18 14:55:00
10:15 AM,47.3,39.2,73,29.88,10.0,West,13.8,18.4,N/A,,Overcast,260,2013-10-18 15:15:00
10:19 AM,46.4,39.2,76,29.89,10.0,West,12.7,18.4,N/A,,Overcast,270,2013-10-18 15:19:00
10:35 AM,47.8,38.3,70,29.88,10.0,West,11.5,17.3,N/A,,Overcast,270,2013-10-18 15:35:00
10:38 AM,48.2,39.2,71,29.88,10.0,West,13.8,-,N/A,,Overcast,270,2013-10-18 15:38:00
10:55 AM,47.3,38.7,72,29.89,10.0,West,6.9,-,N/A,,Overcast,260,2013-10-18 15:55:00
11:15 AM,48.4,38.7,69,29.89,10.0,West,15.0,-,N/A,,Overcast,280,2013-10-18 16:15:00
11:18 AM,48.2,39.2,71,29.89,10.0,West,12.7,-,N/A,,Overcast,280,2013-10-18 16:18:00
11:35 AM,48.2,39.6,72,29.90,10.0,West,15.0,19.6,N/A,,Overcast,270,2013-10-18 16:35:00
11:39 AM,48.2,39.2,71,29.90,10.0,West,18.4,21.9,N/A,,Overcast,280,2013-10-18 16:39:00
11:55 AM,47.3,38.8,72,29.90,10.0,West,13.8,-,N/A,,Overcast,270,2013-10-18 16:55:00
11:58 AM,46.4,39.2,76,29.90,10.0,West,15.0,20.7,N/A,,Overcast,270,2013-10-18 16:58:00
12:15 PM,46.9,38.5,72,29.90,10.0,West,17.3,21.9,N/A,,Overcast,270,2013-10-18 17:15:00
12:19 PM,46.4,39.2,76,29.90,10.0,West,12.7,19.6,N/A,,Overcast,280,2013-10-18 17:19:00
12:35 PM,48.2,39.0,71,29.90,10.0,West,13.8,-,N/A,,Overcast,280,2013-10-18 17:35:00
12:38 PM,48.2,39.2,71,29.90,10.0,West,12.7,-,N/A,,Overcast,270,2013-10-18 17:38:00
12:55 PM,47.3,38.3,71,29.90,10.0,West,11.5,-,N/A,,Overcast,280,2013-10-18 17:55:00
12:58 PM,46.4,39.2,76,29.90,10.0,West,13.8,18.4,N/A,,Overcast,280,2013-10-18 17:58:00
1:15 PM,47.8,37.0,66,29.90,10.0,WNW,15.0,20.7,N/A,,Overcast,290,2013-10-18 18:15:00
1:35 PM,47.1,37.4,69,29.91,10.0,WNW,16.1,-,N/A,,Overcast,300,2013-10-18 18:35:00
1:55 PM,46.8,36.9,68,29.91,10.0,WNW,16.1,20.7,N/A,,Overcast,290,2013-10-18 18:55:00
2:15 PM,47.3,36.0,65,29.90,10.0,WNW,11.5,19.6,N/A,,Overcast,300,2013-10-18 19:15:00
2:35 PM,47.3,36.5,66,29.90,10.0,WNW,12.7,19.6,N/A,,Overcast,300,2013-10-18 19:35:00
2:55 PM,46.8,36.0,66,29.90,10.0,WNW,11.5,17.3,N/A,,Overcast,300,2013-10-18 19:55:00
3:15 PM,47.3,36.1,65,29.90,10.0,WNW,13.8,18.4,N/A,,Overcast,290,2013-10-18 20:15:00
3:35 PM,46.9,35.4,64,29.91,10.0,West,13.8,-,N/A,,Overcast,280,2013-10-18 20:35:00
3:55 PM,47.3,34.7,62,29.91,10.0,WNW,8.1,-,N/A,,Overcast,290,2013-10-18 20:55:00
4:15 PM,46.9,34.5,62,29.91,10.0,WNW,12.7,-,N/A,,Overcast,290,2013-10-18 21:15:00
4:35 PM,46.8,34.7,63,29.91,10.0,WNW,9.2,-,N/A,,Overcast,290,2013-10-18 21:35:00
4:55 PM,46.9,35.1,63,29.91,10.0,WNW,8.1,-,N/A,,Overcast,290,2013-10-18 21:55:00
5:15 PM,47.1,34.9,62,29.92,10.0,West,5.8,-,N/A,,Mostly Cloudy,280,2013-10-18 22:15:00
5:35 PM,46.0,35.1,66,29.93,10.0,West,8.1,-,N/A,,Scattered Clouds,280,2013-10-18 22:35:00
5:55 PM,45.1,35.2,68,29.93,10.0,West,5.8,-,N/A,,Scattered Clouds,280,2013-10-18 22:55:00
6:15 PM,44.4,35.4,71,29.93,10.0,WSW,3.5,-,N/A,,Scattered Clouds,240,2013-10-18 23:15:00
6:35 PM,44.2,34.7,69,29.93,10.0,WSW,3.5,-,N/A,,Clear,250,2013-10-18 23:35:00
6:55 PM,43.9,35.1,71,29.94,10.0,Calm,Calm,-,N/A,,Clear,0,2013-10-18 23:55:00
7:15 PM,42.8,35.2,75,29.94,10.0,Calm,Calm,-,N/A,,Clear,0,2013-10-19 00:15:00
7:35 PM,41.0,35.4,81,29.94,10.0,Calm,Calm,-,N/A,,Clear,0,2013-10-19 00:35:00
7:55 PM,41.7,36.0,80,29.94,10.0,Calm,Calm,-,N/A,,Clear,0,2013-10-19 00:55:00
8:15 PM,41.0,36.1,83,29.94,10.0,Calm,Calm,-,N/A,,Scattered Clouds,0,2013-10-19 01:15:00
8:35 PM,40.8,37.8,89,29.94,10.0,Calm,Calm,-,N/A,,Mostly Cloudy,0,2013-10-19 01:35:00
8:55 PM,41.0,37.4,87,29.94,10.0,Calm,Calm,-,N/A,,Scattered Clouds,0,2013-10-19 01:55:00
9:15 PM,40.1,38.1,93,29.93,10.0,Calm,Calm,-,N/A,,Clear,0,2013-10-19 02:15:00
9:35 PM,40.3,38.3,93,29.93,10.0,Calm,Calm,-,N/A,,Clear,0,2013-10-19 02:35:00
9:55 PM,40.1,37.9,92,29.93,10.0,Calm,Calm,-,N/A,,Scattered Clouds,0,2013-10-19 02:55:00
10:15 PM,40.3,38.3,93,29.93,10.0,Calm,Calm,-,N/A,,Scattered Clouds,0,2013-10-19 03:15:00
10:35 PM,39.6,37.4,92,29.93,10.0,Calm,Calm,-,N/A,,Scattered Clouds,0,2013-10-19 03:35:00
10:55 PM,40.3,37.6,90,29.92,10.0,Calm,Calm,-,N/A,,Mostly Cloudy,0,2013-10-19 03:55:00
11:15 PM,40.1,37.6,91,29.92,10.0,Calm,Calm,-,N/A,,Scattered Clouds,0,2013-10-19 04:15:00
11:35 PM,39.9,37.4,91,29.92,10.0,Calm,Calm,-,N/A,,Scattered Clouds,0,2013-10-19 04:35:00
11:55 PM,39.7,36.0,86,29.91,10.0,Calm,Calm,-,N/A,,Scattered Clouds,0,2013-10-19 04:55:00